Regional Weather Roundup
Issued by NWS

Home | Current Version | Previous Version | Graphics & Text | Print | Product List | Glossary On
Versions: 1 2 3 4 5 6 7 8 9 10 11 12 13 14 15 16 17 18 19 20 21 22 23 24 25 26 27 28 29 30 31 32 33 34 35 36 37 38 39 40 41 42 43 44 45 46 47 48 49 50
000
ASUS43 KDTX 200310
RWRMI
MICHIGAN HOURLY REGIONAL WEATHER ROUNDUP
NATIONAL WEATHER SERVICE DETROIT/PONTIAC MI
1000 PM EST FRI JAN 19 2018

NOTE: "FAIR" INDICATES FEW OR NO CLOUDS BELOW 12,000 FEET WITH NO
SIGNIFICANT WEATHER AND/OR OBSTRUCTION TO VISIBILITY.

MIZ047>049-052>055-059>063-066>070-074>076-081>083-200400-
SOUTHEAST LOWER MICHIGAN

CITY           SKY/WX    TMP DP  RH WIND       PRES   REMARKS
ADRIAN         FAIR      32  23  69 SW22G31   29.79F WCI  19
ALMA           FAIR      35  24  64 SW16G22   29.67R WCI  25
ANN ARBOR      FAIR      33  24  69 S13G23    29.76F WCI  24
BAD AXE        FAIR      36  23  59 SW14G21   29.61F WCI  27
CARO           FAIR      37  24  61 SW16G25   29.63S WCI  27
DETROIT CITY   FAIR      37  23  56 SW24G33   29.74F WCI  26
DETROIT        CLOUDY    36  23  59 SW24G33   29.77F WCI  24
FLINT          FAIR      37  23  56 SW15G23   29.69F WCI  28
GROSSE ILE     FAIR      36  24  61 SW17G23   29.78F WCI  26
HILLSDALE      FAIR      34  23  64 SW10G21   29.77S WCI  26
HOWELL         FAIR      37  25  63 SW13G22   29.71F WCI  29

CITY           SKY/WX    TMP DP  RH WIND       PRES   REMARKS
JACKSON        FAIR      36  24  62 S18G31    29.73F WCI  26
LAMBERTVILLE   FAIR      36  23  59 SW14G26   29.81F WCI  27
LANSING        FAIR      35  24  64 SW17      29.71R WCI  25
LAPEER         FAIR      37  23  58 SW17G23   29.67F WCI  27
MASON          FAIR      37  21  52 SW13G18   29.72R WCI  29
MONROE         FAIR      37  21  52 SW17G29   29.78F WCI  28
MT. CLEMENS    CLOUDY    33  22  64 SW16G29   29.72F WCI  22
PONTIAC        CLOUDY    34  24  67 SW13G23   29.70F WCI  25
PORT HOPE        N/A     38  23  55 SW15G30   29.55F WCI  29
PORT HURON     FAIR      36  23  60 SW15G23   29.71F WCI  26
TRI CITIES     FAIR      35  25  66 SW23G33   29.64S WCI  23
MIDLAND        FAIR      35  24  64 SW13G18   29.64R WCI  26
TROY           FAIR      35  24  63 SW18G26   29.75F WCI  25
SAGINAW HB     FAIR      34  25  69 SW21      29.64R WCI  22
$$
MIZ043>046-050>051-056>058-064>065-071>073-077>080-200400-
SOUTHWEST LOWER MICHIGAN

CITY           SKY/WX    TMP DP  RH WIND       PRES   REMARKS
BATTLE CREEK   FAIR      35  24  64 SW20      29.75S WCI  24
BENTON HARBOR  FAIR      37  24  59 S14G22    29.75S WCI  28
BIG RAPIDS     FAIR      35  26  71 SW17G23   29.62F WCI  24
COLDWATER      FAIR      36  25  64 SW16G23   29.77F WCI  26
FREMONT        FAIR      37  26  65 SW17G24   29.68S WCI  27
HOLLAND        FAIR      37  26  64 SW24G41   29.72R WCI  26
GRAND RAPIDS   FAIR      36  24  62 SW17      29.72R WCI  26
IONIA          FAIR      36  24  62 SW17G24   29.69S WCI  25
KALAMAZOO      FAIR      35  24  64 S14       29.75F WCI  26
LUDINGTON      FAIR      37  31  80 SW20G29   29.63S WCI  27
MARSHALL       FAIR      35  23  62 SW16      29.74S WCI  25
MOUNT PLEASANT FAIR      37  24  59 SW17G23   29.64R WCI  27
MUSKEGON       MOCLDY    38  29  70 SW23      29.71R WCI  27
SOUTH HAVEN    FAIR      38  25  58 SW13G20   29.73S WCI  30
$$
MIZ016>042-200400-
NORTHERN LOWER MICHIGAN

CITY           SKY/WX    TMP DP  RH WIND       PRES   REMARKS
ALPENA         FAIR      38  26  62 SW10      29.50R WCI  31
BEAVER ISLAND  FAIR      38  32  80 SW21G28   29.47S WCI  27
CADILLAC       FAIR      33  28  81 SW20G28   29.56S WCI  21
CHARLEVOIX     FAIR      37  28  68 SW14G21   29.54R WCI  29
FRANKFORT      FAIR      39  32  77 S15G28    29.58S WCI  30
GAYLORD        FAIR      34  26  72 SW23G32   29.49S WCI  22
GRAYLING       FAIR      34  24  65 SW12G18   29.55S WCI  26
HARBOR SPRINGS FAIR      35  27  74 SW12G20   29.49S WCI  27
HOUGHTON LAKE  FAIR      33  23  66 SW15      29.56F WCI  23
MANISTEE       FAIR      39  29  67 SW14      29.62R WCI  31
OSCODA         FAIR      33  23  68 SW22      29.54R WCI  20
PELLSTON       FAIR      37  26  64 SW16G30   29.47F WCI  28
ROGERS CITY    FAIR      37  27  65 SW6       29.49S WCI  33
TRAVERSE CITY  FAIR      39  27  62 VRB7      29.55R WCI  34
$$
MIZ007>008-015-200400-
EASTERN UPPER MICHIGAN

CITY           SKY/WX    TMP DP  RH WIND       PRES   REMARKS
KINROSS        FAIR      35  29  78 W15G24    29.44F WCI  25
MACKINAC ISLAN FAIR      35  28  77 SW16G24   29.46F WCI  25
NEWBERRY       FAIR      33  32  96 SW17G28   29.40F WCI  22
S. S. MARIE    MOCLDY    38  31  76 SW16G24   29.42F WCI  29
MUNISING         N/A     34  27  75 SW16G25   29.41R WCI  24
$$
MIZ004>006-011>014-085-200400-
CENTRAL UPPER MICHIGAN

CITY           SKY/WX    TMP DP  RH WIND       PRES   REMARKS
MANISTIQUE     FAIR      32  30  93 SW7       29.44S WCI  26
ESCANABA       FAIR      29  25  85 SW7       29.48R WCI  22
MENOMINEE      FAIR      36  26  67 W9G17     29.53R WCI  29
SAWYER-GWINN   CLEAR     30  23  74 SW7       29.42S WCI  23
$$
MIZ001>003-009>011-084-200400-
WESTERN UPPER MICHIGAN

CITY           SKY/WX    TMP DP  RH WIND       PRES   REMARKS
IRON MOUNTAIN  FAIR      36  26  67 W8        29.45R WCI  30
HOUGHTON       FAIR      42  25  50 W28G39    29.38S
COPPER HARBOR    N/A     43  27  53 NW14G26   29.35S
IRONWOOD       FAIR      39  27  62 W15       29.50R WCI  31
$$

ABBREVIATIONS USED IN REMARKS
   TC - TEMPERATURE IN CELSIUS
  WCI - WIND CHILL INDEX
   HX - HEAT INDEX
  VSB - VISIBILITY





USA.gov is the U.S. government's official web portal to all federal, state and local government web resources and services.